Year,Month,Day,Hour,Minute,Value (Times are PST for temperature in C)
2018,06,20,00,00,16.10
2018,06,20,00,01,16.00
2018,06,20,00,02,16.00
2018,06,20,00,03,16.00
2018,06,20,00,04,16.00
2018,06,20,00,05,16.00
2018,06,20,00,06,16.00
2018,06,20,00,07,16.00
2018,06,20,00,08,16.00
2018,06,20,00,09,16.00
2018,06,20,00,10,16.00
2018,06,20,00,11,15.90
2018,06,20,00,12,15.90
2018,06,20,00,13,15.90
2018,06,20,00,14,15.90
2018,06,20,00,15,15.90
2018,06,20,00,16,15.90
2018,06,20,00,17,15.90
2018,06,20,00,18,15.90
2018,06,20,00,19,15.90
2018,06,20,00,20,15.90
2018,06,20,00,21,15.90
2018,06,20,00,22,15.90
2018,06,20,00,23,15.90
2018,06,20,00,24,15.90
2018,06,20,00,25,15.90
2018,06,20,00,26,15.80
2018,06,20,00,27,15.80
2018,06,20,00,28,15.80
2018,06,20,00,29,15.80
2018,06,20,00,30,15.80
2018,06,20,00,31,15.80
2018,06,20,00,32,15.80
2018,06,20,00,33,15.70
2018,06,20,00,34,15.70
2018,06,20,00,35,15.70
2018,06,20,00,36,15.70
2018,06,20,00,37,15.70
2018,06,20,00,38,15.70
2018,06,20,00,39,15.70
2018,06,20,00,40,15.70
2018,06,20,00,41,15.70
2018,06,20,00,42,15.70
2018,06,20,00,43,15.70
2018,06,20,00,44,15.60
2018,06,20,00,45,15.60
2018,06,20,00,46,15.60
2018,06,20,00,47,15.60
2018,06,20,00,48,15.60
2018,06,20,00,49,15.60
2018,06,20,00,50,15.60
2018,06,20,00,51,15.60
2018,06,20,00,52,15.60
2018,06,20,00,53,15.60
2018,06,20,00,54,15.60
2018,06,20,00,55,15.60
2018,06,20,00,56,15.60
2018,06,20,00,57,15.60
2018,06,20,00,58,15.60
2018,06,20,00,59,15.60
2018,06,20,01,00,15.60
2018,06,20,01,01,15.50
2018,06,20,01,02,15.50
2018,06,20,01,03,15.50
2018,06,20,01,04,15.50
2018,06,20,01,05,15.50
2018,06,20,01,06,15.50
2018,06,20,01,07,15.50
2018,06,20,01,08,15.50
2018,06,20,01,09,15.50
2018,06,20,01,10,15.40
2018,06,20,01,11,15.40
2018,06,20,01,12,15.40
2018,06,20,01,13,15.40
2018,06,20,01,14,15.40
2018,06,20,01,15,15.40
2018,06,20,01,16,15.40
2018,06,20,01,17,15.30
2018,06,20,01,18,15.30
2018,06,20,01,19,15.30
2018,06,20,01,20,15.30
2018,06,20,01,21,15.30
2018,06,20,01,22,15.30
2018,06,20,01,23,15.30
2018,06,20,01,24,15.30
2018,06,20,01,25,15.30
2018,06,20,01,26,15.30
2018,06,20,01,27,15.30
2018,06,20,01,28,15.30
2018,06,20,01,29,15.20
2018,06,20,01,30,15.20
2018,06,20,01,31,15.20
2018,06,20,01,32,15.20
2018,06,20,01,33,15.20
2018,06,20,01,34,15.20
2018,06,20,01,35,15.20
2018,06,20,01,36,15.20
2018,06,20,01,37,15.20
2018,06,20,01,38,15.20
2018,06,20,01,39,15.10
2018,06,20,01,40,15.10
2018,06,20,01,41,15.10
2018,06,20,01,42,15.10
2018,06,20,01,43,15.10
2018,06,20,01,44,15.00
2018,06,20,01,45,15.00
2018,06,20,01,46,15.00
2018,06,20,01,47,15.00
2018,06,20,01,48,15.00
2018,06,20,01,49,15.00
2018,06,20,01,50,14.90
2018,06,20,01,51,14.90
2018,06,20,01,52,14.90
2018,06,20,01,53,14.90
2018,06,20,01,54,14.90
2018,06,20,01,55,14.80
2018,06,20,01,56,14.80
2018,06,20,01,57,14.80
2018,06,20,01,58,14.80
2018,06,20,01,59,14.80
2018,06,20,02,00,14.80
2018,06,20,02,01,14.80
2018,06,20,02,02,14.80
2018,06,20,02,03,14.80
2018,06,20,02,04,14.70
2018,06,20,02,05,14.70
2018,06,20,02,06,14.70
2018,06,20,02,07,14.70
2018,06,20,02,08,14.70
2018,06,20,02,09,14.70
2018,06,20,02,10,14.70
2018,06,20,02,11,14.70
2018,06,20,02,12,14.70
2018,06,20,02,13,14.70
2018,06,20,02,14,14.70
2018,06,20,02,15,14.60
2018,06,20,02,16,14.60
2018,06,20,02,17,14.60
2018,06,20,02,18,14.60
2018,06,20,02,19,14.60
2018,06,20,02,20,14.60
2018,06,20,02,21,14.60
2018,06,20,02,22,14.60
2018,06,20,02,23,14.60
2018,06,20,02,24,14.60
2018,06,20,02,25,14.60
2018,06,20,02,26,14.50
2018,06,20,02,27,14.50
2018,06,20,02,28,14.50
2018,06,20,02,29,14.50
2018,06,20,02,30,14.50
2018,06,20,02,31,14.50
2018,06,20,02,32,14.50
2018,06,20,02,33,14.40
2018,06,20,02,34,14.40
2018,06,20,02,35,14.40
2018,06,20,02,36,14.40
2018,06,20,02,37,14.40
2018,06,20,02,38,14.40
2018,06,20,02,39,14.40
2018,06,20,02,40,14.40
2018,06,20,02,41,14.30
2018,06,20,02,42,14.30
2018,06,20,02,43,14.30
2018,06,20,02,44,14.30
2018,06,20,02,45,14.30
2018,06,20,02,46,14.30
2018,06,20,02,47,14.30
2018,06,20,02,48,14.30
2018,06,20,02,49,14.30
2018,06,20,02,50,14.30
2018,06,20,02,51,14.30
2018,06,20,02,52,14.30
2018,06,20,02,53,14.20
2018,06,20,02,54,14.20
2018,06,20,02,55,14.20
2018,06,20,02,56,14.20
2018,06,20,02,57,14.20
2018,06,20,02,58,14.20
2018,06,20,02,59,14.20
2018,06,20,03,00,14.20
2018,06,20,03,01,14.20
2018,06,20,03,02,14.20
2018,06,20,03,03,14.20
2018,06,20,03,04,14.20
2018,06,20,03,05,14.20
2018,06,20,03,06,14.20
2018,06,20,03,07,14.20
2018,06,20,03,08,14.20
2018,06,20,03,09,14.20
2018,06,20,03,10,14.20
2018,06,20,03,11,14.20
2018,06,20,03,12,14.20
2018,06,20,03,13,14.20
2018,06,20,03,14,14.20
2018,06,20,03,15,14.20
2018,06,20,03,16,14.20
2018,06,20,03,17,14.20
2018,06,20,03,18,14.20
2018,06,20,03,19,14.20
2018,06,20,03,20,14.20
2018,06,20,03,21,14.20
2018,06,20,03,22,14.20
2018,06,20,03,23,14.20
2018,06,20,03,24,14.20
2018,06,20,03,25,14.20
2018,06,20,03,26,14.10
2018,06,20,03,27,14.10
2018,06,20,03,28,14.10
2018,06,20,03,29,14.10
2018,06,20,03,30,14.10
2018,06,20,03,31,14.10
2018,06,20,03,32,14.10
2018,06,20,03,33,14.10
2018,06,20,03,34,14.10
2018,06,20,03,35,14.10
2018,06,20,03,36,14.00
2018,06,20,03,37,14.00
2018,06,20,03,38,14.00
2018,06,20,03,39,14.00
2018,06,20,03,40,14.00
2018,06,20,03,41,14.00
2018,06,20,03,42,14.00
2018,06,20,03,43,14.00
2018,06,20,03,44,13.90
2018,06,20,03,45,13.90
2018,06,20,03,46,13.90
2018,06,20,03,47,13.90
2018,06,20,03,48,13.90
2018,06,20,03,49,13.90
2018,06,20,03,50,13.90
2018,06,20,03,51,13.90
2018,06,20,03,52,13.90
2018,06,20,03,53,13.90
2018,06,20,03,54,13.80
2018,06,20,03,55,13.80
2018,06,20,03,56,13.80
2018,06,20,03,57,13.80
2018,06,20,03,58,13.80
2018,06,20,03,59,13.80
2018,06,20,04,00,13.80
2018,06,20,04,01,13.80
2018,06,20,04,02,13.80
2018,06,20,04,03,13.80
2018,06,20,04,04,13.80
2018,06,20,04,05,13.80
2018,06,20,04,06,13.80
2018,06,20,04,07,13.80
2018,06,20,04,08,13.80
2018,06,20,04,09,13.80
2018,06,20,04,10,13.70
2018,06,20,04,11,13.80
2018,06,20,04,12,13.70
2018,06,20,04,13,13.70
2018,06,20,04,14,13.70
2018,06,20,04,15,13.70
2018,06,20,04,16,13.70
2018,06,20,04,17,13.70
2018,06,20,04,18,13.70
2018,06,20,04,19,13.70
2018,06,20,04,20,13.70
2018,06,20,04,21,13.70
2018,06,20,04,22,13.70
2018,06,20,04,23,13.70
2018,06,20,04,24,13.70
2018,06,20,04,25,13.70
2018,06,20,04,26,13.70
2018,06,20,04,27,13.70
2018,06,20,04,28,13.70
2018,06,20,04,29,13.70
2018,06,20,04,30,13.70
2018,06,20,04,31,13.70
2018,06,20,04,32,13.70
2018,06,20,04,33,13.60
2018,06,20,04,34,13.60
2018,06,20,04,35,13.60
2018,06,20,04,36,13.60
2018,06,20,04,37,13.60
2018,06,20,04,38,13.60
2018,06,20,04,39,13.60
2018,06,20,04,40,13.60
2018,06,20,04,41,13.60
2018,06,20,04,42,13.60
2018,06,20,04,43,13.60
2018,06,20,04,44,13.60
2018,06,20,04,45,13.60
2018,06,20,04,46,13.60
2018,06,20,04,47,13.60
2018,06,20,04,48,13.60
2018,06,20,04,49,13.60
2018,06,20,04,50,13.60
2018,06,20,04,51,13.60
2018,06,20,04,52,13.60
2018,06,20,04,53,13.60
2018,06,20,04,54,13.60
2018,06,20,04,55,13.60
2018,06,20,04,56,13.60
2018,06,20,04,57,13.60
2018,06,20,04,58,13.60
2018,06,20,04,59,13.60
2018,06,20,05,00,13.60
2018,06,20,05,01,13.60
2018,06,20,05,02,13.60
2018,06,20,05,03,13.60
2018,06,20,05,04,13.60
2018,06,20,05,05,13.60
2018,06,20,05,06,13.60
2018,06,20,05,07,13.70
2018,06,20,05,08,13.70
2018,06,20,05,09,13.70
2018,06,20,05,10,13.70
2018,06,20,05,11,13.70
2018,06,20,05,12,13.80
2018,06,20,05,13,13.80
2018,06,20,05,14,13.80
2018,06,20,05,15,13.80
2018,06,20,05,16,13.80
2018,06,20,05,17,13.80
2018,06,20,05,18,13.80
2018,06,20,05,19,13.80
2018,06,20,05,20,13.80
2018,06,20,05,21,13.80
2018,06,20,05,22,13.80
2018,06,20,05,23,13.80
2018,06,20,05,24,13.80
2018,06,20,05,25,13.80
2018,06,20,05,26,13.80
2018,06,20,05,27,13.80
2018,06,20,05,28,13.80
2018,06,20,05,29,13.80
2018,06,20,05,30,13.80
2018,06,20,05,31,13.70
2018,06,20,05,32,13.70
2018,06,20,05,33,13.70
2018,06,20,05,34,13.70
2018,06,20,05,35,13.60
2018,06,20,05,36,13.60
2018,06,20,05,37,13.60
2018,06,20,05,38,13.60
2018,06,20,05,39,13.60
2018,06,20,05,40,13.60
2018,06,20,05,41,13.60
2018,06,20,05,42,13.60
2018,06,20,05,43,13.60
2018,06,20,05,44,13.60
2018,06,20,05,45,13.60
2018,06,20,05,46,13.70
2018,06,20,05,47,13.60
2018,06,20,05,48,13.70
2018,06,20,05,49,13.70
2018,06,20,05,50,13.70
2018,06,20,05,51,13.70
2018,06,20,05,52,13.70
2018,06,20,05,53,13.70
2018,06,20,05,54,13.70
2018,06,20,05,55,13.70
2018,06,20,05,56,13.70
2018,06,20,05,57,13.70
2018,06,20,05,58,13.70
2018,06,20,05,59,13.70
2018,06,20,06,00,13.70
2018,06,20,06,01,13.70
2018,06,20,06,02,13.70
2018,06,20,06,03,13.70
2018,06,20,06,04,13.70
2018,06,20,06,05,13.70
2018,06,20,06,06,13.70
2018,06,20,06,07,13.70
2018,06,20,06,08,13.80
2018,06,20,06,09,13.80
2018,06,20,06,10,13.80
2018,06,20,06,11,13.80
2018,06,20,06,12,13.80
2018,06,20,06,13,13.80
2018,06,20,06,14,13.80
2018,06,20,06,15,13.80
2018,06,20,06,16,13.80
2018,06,20,06,17,13.80
2018,06,20,06,18,13.80
2018,06,20,06,19,13.80
2018,06,20,06,20,13.80
2018,06,20,06,21,13.80
2018,06,20,06,22,13.80
2018,06,20,06,23,13.80
2018,06,20,06,24,13.80
2018,06,20,06,25,13.80
2018,06,20,06,26,13.80
2018,06,20,06,27,13.80
2018,06,20,06,28,13.80
2018,06,20,06,29,13.80
2018,06,20,06,30,13.80
2018,06,20,06,31,13.90
2018,06,20,06,32,13.90
2018,06,20,06,33,13.90
2018,06,20,06,34,13.90
2018,06,20,06,35,13.90
2018,06,20,06,36,13.90
2018,06,20,06,37,13.90
2018,06,20,06,38,13.90
2018,06,20,06,39,13.90
2018,06,20,06,40,13.90
2018,06,20,06,41,13.80
2018,06,20,06,42,13.80
2018,06,20,06,43,13.80
2018,06,20,06,44,13.90
2018,06,20,06,45,13.90
2018,06,20,06,46,13.90
2018,06,20,06,47,13.90
2018,06,20,06,48,13.90
2018,06,20,06,49,14.00
2018,06,20,06,50,14.00
2018,06,20,06,51,14.10
2018,06,20,06,52,14.10
2018,06,20,06,53,14.10
2018,06,20,06,54,14.20
2018,06,20,06,55,14.20
2018,06,20,06,56,14.20
2018,06,20,06,57,14.30
2018,06,20,06,58,14.30
2018,06,20,06,59,14.30
2018,06,20,07,00,14.30
2018,06,20,07,01,14.40
2018,06,20,07,02,14.40
2018,06,20,07,03,14.40
2018,06,20,07,04,14.50
2018,06,20,07,05,14.50
2018,06,20,07,06,14.60
2018,06,20,07,07,14.60
2018,06,20,07,08,14.70
2018,06,20,07,09,14.80
2018,06,20,07,10,14.80
2018,06,20,07,11,14.90
2018,06,20,07,12,14.90
2018,06,20,07,13,15.00
2018,06,20,07,14,15.00
2018,06,20,07,15,15.00
2018,06,20,07,16,15.00
2018,06,20,07,17,15.00
2018,06,20,07,18,15.00
2018,06,20,07,19,15.00
2018,06,20,07,20,15.00
2018,06,20,07,21,15.00
2018,06,20,07,22,15.00
2018,06,20,07,23,15.00
2018,06,20,07,24,14.90
2018,06,20,07,25,14.90
2018,06,20,07,26,14.80
2018,06,20,07,27,14.80
2018,06,20,07,28,14.80
2018,06,20,07,29,14.80
2018,06,20,07,30,14.80
2018,06,20,07,31,14.80
2018,06,20,07,32,14.80
2018,06,20,07,33,14.80
2018,06,20,07,34,14.80
2018,06,20,07,35,14.80
2018,06,20,07,36,14.80
2018,06,20,07,37,14.80
2018,06,20,07,38,14.80
2018,06,20,07,39,14.80
2018,06,20,07,40,14.80
2018,06,20,07,41,14.80
2018,06,20,07,42,14.80
2018,06,20,07,43,14.80
2018,06,20,07,44,14.80
2018,06,20,07,45,14.80
2018,06,20,07,46,14.80
2018,06,20,07,47,14.80
2018,06,20,07,48,14.80
2018,06,20,07,49,14.80
2018,06,20,07,50,14.80
2018,06,20,07,51,14.80
2018,06,20,07,52,14.80
2018,06,20,07,53,14.80
2018,06,20,07,54,14.80
2018,06,20,07,55,14.80
2018,06,20,07,56,14.80
2018,06,20,07,57,14.80
2018,06,20,07,58,14.80
2018,06,20,07,59,14.80
2018,06,20,08,00,14.80
2018,06,20,08,01,14.80
2018,06,20,08,02,14.80
2018,06,20,08,03,14.80
2018,06,20,08,04,14.80
2018,06,20,08,05,14.80
2018,06,20,08,06,14.80
2018,06,20,08,07,14.80
2018,06,20,08,08,14.80
2018,06,20,08,09,14.80
2018,06,20,08,10,14.80
2018,06,20,08,11,14.80
2018,06,20,08,12,14.80
2018,06,20,08,13,14.80
2018,06,20,08,14,14.80
2018,06,20,08,15,14.80
2018,06,20,08,16,14.80
2018,06,20,08,17,14.80
2018,06,20,08,18,14.80
2018,06,20,08,19,14.70
2018,06,20,08,20,14.70
2018,06,20,08,21,14.80
2018,06,20,08,22,14.80
2018,06,20,08,23,14.80
2018,06,20,08,24,14.80
2018,06,20,08,25,14.80
2018,06,20,08,26,14.80
2018,06,20,08,27,14.80
2018,06,20,08,28,14.80
2018,06,20,08,29,14.80
2018,06,20,08,30,14.80
2018,06,20,08,31,14.80
2018,06,20,08,32,14.80
2018,06,20,08,33,14.80
2018,06,20,08,34,14.80
2018,06,20,08,35,14.80
2018,06,20,08,36,14.80
2018,06,20,08,37,14.80
2018,06,20,08,38,14.80
2018,06,20,08,39,14.80
2018,06,20,08,40,14.80
2018,06,20,08,41,14.80
2018,06,20,08,42,14.80
2018,06,20,08,43,14.80
2018,06,20,08,44,14.80
2018,06,20,08,45,14.80
2018,06,20,08,46,14.90
2018,06,20,08,47,14.90
2018,06,20,08,48,14.90
2018,06,20,08,49,14.90
2018,06,20,08,50,14.90
2018,06,20,08,51,15.00
2018,06,20,08,52,15.00
2018,06,20,08,53,15.00
2018,06,20,08,54,15.10
2018,06,20,08,55,15.10
2018,06,20,08,56,15.10
2018,06,20,08,57,15.10
2018,06,20,08,58,15.10
2018,06,20,08,59,15.20
2018,06,20,09,00,15.20
2018,06,20,09,01,15.20
2018,06,20,09,02,15.20
2018,06,20,09,03,15.20
2018,06,20,09,04,15.20
2018,06,20,09,05,15.20
2018,06,20,09,06,15.20
2018,06,20,09,07,15.30
2018,06,20,09,08,15.30
2018,06,20,09,09,15.30
2018,06,20,09,10,15.30
2018,06,20,09,11,15.30
2018,06,20,09,12,15.30
2018,06,20,09,13,15.40
2018,06,20,09,14,15.40
2018,06,20,09,15,15.40
2018,06,20,09,16,15.40
2018,06,20,09,17,15.40
2018,06,20,09,18,15.40
2018,06,20,09,19,15.40
2018,06,20,09,20,15.40
2018,06,20,09,21,15.50
2018,06,20,09,22,15.50
2018,06,20,09,23,15.50
2018,06,20,09,24,15.50
2018,06,20,09,25,15.50
2018,06,20,09,26,15.50
2018,06,20,09,27,15.50
2018,06,20,09,28,15.50
2018,06,20,09,29,15.40
2018,06,20,09,30,15.40
2018,06,20,09,31,15.40
2018,06,20,09,32,15.40
2018,06,20,09,33,15.40
2018,06,20,09,34,15.40
2018,06,20,09,35,15.40
2018,06,20,09,36,15.50
2018,06,20,09,37,15.50
2018,06,20,09,38,15.50
2018,06,20,09,39,15.60
2018,06,20,09,40,15.60
2018,06,20,09,41,15.70
2018,06,20,09,42,15.70
2018,06,20,09,43,15.70
2018,06,20,09,44,15.70
2018,06,20,09,45,15.80
2018,06,20,09,46,15.80
2018,06,20,09,47,15.90
2018,06,20,09,48,16.00
2018,06,20,09,49,16.00
2018,06,20,09,50,16.10
2018,06,20,09,51,16.10
2018,06,20,09,52,16.20
2018,06,20,09,53,16.20
2018,06,20,09,54,16.30
2018,06,20,09,55,16.30
2018,06,20,09,56,16.40
2018,06,20,09,57,16.40
2018,06,20,09,58,16.50
2018,06,20,09,59,16.60
2018,06,20,10,00,16.60
2018,06,20,10,01,16.70
2018,06,20,10,02,16.70
2018,06,20,10,03,16.70
2018,06,20,10,04,16.80
2018,06,20,10,05,16.80
2018,06,20,10,06,16.90
2018,06,20,10,07,16.90
2018,06,20,10,08,16.90
2018,06,20,10,09,16.90
2018,06,20,10,10,16.90
2018,06,20,10,11,16.90
2018,06,20,10,12,16.90
2018,06,20,10,13,16.90
2018,06,20,10,14,16.90
2018,06,20,10,15,16.90
2018,06,20,10,16,17.00
2018,06,20,10,17,17.00
2018,06,20,10,18,17.00
2018,06,20,10,19,17.00
2018,06,20,10,20,17.10
2018,06,20,10,21,17.10
2018,06,20,10,22,17.10
2018,06,20,10,23,17.10
2018,06,20,10,24,17.20
2018,06,20,10,25,17.20
2018,06,20,10,26,17.30
2018,06,20,10,27,17.30
2018,06,20,10,28,17.30
2018,06,20,10,29,17.30
2018,06,20,10,30,17.40
2018,06,20,10,31,17.40
2018,06,20,10,32,17.40
2018,06,20,10,33,17.50
2018,06,20,10,34,17.60
2018,06,20,10,35,17.70
2018,06,20,10,36,17.80
2018,06,20,10,37,17.90
2018,06,20,10,38,18.00
2018,06,20,10,39,18.10
2018,06,20,10,40,18.10
2018,06,20,10,41,18.20
2018,06,20,10,42,18.20
2018,06,20,10,43,18.30
2018,06,20,10,44,18.30
2018,06,20,10,45,18.40
2018,06,20,10,46,18.40
2018,06,20,10,47,18.40
2018,06,20,10,48,18.40
2018,06,20,10,49,18.40
2018,06,20,10,50,18.40
2018,06,20,10,51,18.50
2018,06,20,10,52,18.50
2018,06,20,10,53,18.60
2018,06,20,10,54,18.60
2018,06,20,10,55,18.70
2018,06,20,10,56,18.90
2018,06,20,10,57,19.00
2018,06,20,10,58,19.10
2018,06,20,10,59,19.20
2018,06,20,11,00,19.30
2018,06,20,11,01,19.40
2018,06,20,11,02,19.50
2018,06,20,11,03,19.60
2018,06,20,11,04,19.60
2018,06,20,11,05,19.70
2018,06,20,11,06,19.80
2018,06,20,11,07,19.80
2018,06,20,11,08,19.80
2018,06,20,11,09,19.90
2018,06,20,11,10,19.90
2018,06,20,11,11,19.90
2018,06,20,11,12,19.90
2018,06,20,11,13,20.00
2018,06,20,11,14,20.10
2018,06,20,11,15,20.10
2018,06,20,11,16,20.20
2018,06,20,11,17,20.30
2018,06,20,11,18,20.30
2018,06,20,11,19,20.30
2018,06,20,11,20,20.40
2018,06,20,11,21,20.50
2018,06,20,11,22,20.60
2018,06,20,11,23,20.60
2018,06,20,11,24,20.60
2018,06,20,11,25,20.70
2018,06,20,11,26,20.70
2018,06,20,11,27,20.70
2018,06,20,11,28,20.70
2018,06,20,11,29,20.70
2018,06,20,11,30,20.70
2018,06,20,11,31,20.70
2018,06,20,11,32,20.70
2018,06,20,11,33,20.70
2018,06,20,11,34,20.70
2018,06,20,11,35,20.70
2018,06,20,11,36,20.70
2018,06,20,11,37,20.80
2018,06,20,11,38,20.80
2018,06,20,11,39,20.80
2018,06,20,11,40,20.80
2018,06,20,11,41,20.90
2018,06,20,11,42,20.90
2018,06,20,11,43,20.90
2018,06,20,11,44,20.90
2018,06,20,11,45,20.90
2018,06,20,11,46,21.00
2018,06,20,11,47,21.00
2018,06,20,11,48,21.00
2018,06,20,11,49,21.00
2018,06,20,11,50,21.00
2018,06,20,11,51,21.00
2018,06,20,11,52,21.00
2018,06,20,11,53,21.00
2018,06,20,11,54,21.00
2018,06,20,11,55,21.10
2018,06,20,11,56,21.10
2018,06,20,11,57,21.10
2018,06,20,11,58,21.20
2018,06,20,11,59,21.20
2018,06,20,12,00,21.30
2018,06,20,12,01,21.40
2018,06,20,12,02,21.50
2018,06,20,12,03,21.60
2018,06,20,12,04,21.70
2018,06,20,12,05,21.80
2018,06,20,12,06,21.90
2018,06,20,12,07,22.10
2018,06,20,12,08,22.20
2018,06,20,12,09,22.40
2018,06,20,12,10,22.50
2018,06,20,12,11,22.50
2018,06,20,12,12,22.50
2018,06,20,12,13,22.50
2018,06,20,12,14,22.60
2018,06,20,12,15,22.70
2018,06,20,12,16,22.70
2018,06,20,12,17,22.80
2018,06,20,12,18,22.80
2018,06,20,12,19,22.90
2018,06,20,12,20,22.90
2018,06,20,12,21,23.00
2018,06,20,12,22,23.00
2018,06,20,12,23,23.00
2018,06,20,12,24,23.10
2018,06,20,12,25,23.20
2018,06,20,12,26,23.30
2018,06,20,12,27,23.30
2018,06,20,12,28,23.30
2018,06,20,12,29,23.40
2018,06,20,12,30,23.40
2018,06,20,12,31,23.40
2018,06,20,12,32,23.50
2018,06,20,12,33,23.50
2018,06,20,12,34,23.60
2018,06,20,12,35,23.60
2018,06,20,12,36,23.60
2018,06,20,12,37,23.60
2018,06,20,12,38,23.70
2018,06,20,12,39,23.70
2018,06,20,12,40,23.70
2018,06,20,12,41,23.70
2018,06,20,12,42,23.80
2018,06,20,12,43,23.80
2018,06,20,12,44,23.90
2018,06,20,12,45,23.80
2018,06,20,12,46,23.80
2018,06,20,12,47,23.80
2018,06,20,12,48,23.80
2018,06,20,12,49,23.80
2018,06,20,12,50,23.90
2018,06,20,12,51,23.80
2018,06,20,12,52,23.90
2018,06,20,12,53,23.90
2018,06,20,12,54,23.90
2018,06,20,12,55,24.00
2018,06,20,12,56,24.10
2018,06,20,12,57,24.20
2018,06,20,12,58,24.30
2018,06,20,12,59,24.40
2018,06,20,13,00,24.60
2018,06,20,13,01,24.70
2018,06,20,13,02,24.70
2018,06,20,13,03,24.70
2018,06,20,13,04,24.80
2018,06,20,13,05,24.80
2018,06,20,13,06,24.90
2018,06,20,13,07,24.90
2018,06,20,13,08,24.90
2018,06,20,13,09,25.00
2018,06,20,13,10,25.10
2018,06,20,13,11,25.10
2018,06,20,13,12,25.10
2018,06,20,13,13,25.10
2018,06,20,13,14,25.00
2018,06,20,13,15,25.00
2018,06,20,13,16,24.90
2018,06,20,13,17,24.90
2018,06,20,13,18,24.90
2018,06,20,13,19,25.00
2018,06,20,13,20,25.00
2018,06,20,13,21,25.00
2018,06,20,13,22,25.10
2018,06,20,13,23,25.30
2018,06,20,13,24,25.40
2018,06,20,13,25,25.50
2018,06,20,13,26,25.60
2018,06,20,13,27,25.60
2018,06,20,13,28,25.60
2018,06,20,13,29,25.50
2018,06,20,13,30,25.50
2018,06,20,13,31,25.50
2018,06,20,13,32,25.50
2018,06,20,13,33,25.60
2018,06,20,13,34,25.70
2018,06,20,13,35,25.80
2018,06,20,13,36,25.80
2018,06,20,13,37,25.90
2018,06,20,13,38,26.00
2018,06,20,13,39,26.00
2018,06,20,13,40,26.10
2018,06,20,13,41,26.20
2018,06,20,13,42,26.20
2018,06,20,13,43,26.30
2018,06,20,13,44,26.30
2018,06,20,13,45,26.30
2018,06,20,13,46,26.30
2018,06,20,13,47,26.40
2018,06,20,13,48,26.40
2018,06,20,13,49,26.50
2018,06,20,13,50,26.50
2018,06,20,13,51,26.60
2018,06,20,13,52,26.70
2018,06,20,13,53,26.80
2018,06,20,13,54,26.90
2018,06,20,13,55,26.90
2018,06,20,13,56,26.90
2018,06,20,13,57,27.00
2018,06,20,13,58,27.00
2018,06,20,13,59,27.10
2018,06,20,14,00,27.20
2018,06,20,14,01,27.20
2018,06,20,14,02,27.30
2018,06,20,14,03,27.40
2018,06,20,14,04,27.50
2018,06,20,14,05,27.70
2018,06,20,14,06,27.80
2018,06,20,14,07,27.80
2018,06,20,14,08,27.80
2018,06,20,14,09,27.80
2018,06,20,14,10,27.80
2018,06,20,14,11,27.80
2018,06,20,14,12,27.80
2018,06,20,14,13,27.80
2018,06,20,14,14,27.90
2018,06,20,14,15,28.00
2018,06,20,14,16,28.10
2018,06,20,14,17,28.30
2018,06,20,14,18,28.40
2018,06,20,14,19,28.50
2018,06,20,14,20,28.50
2018,06,20,14,21,28.50
2018,06,20,14,22,28.40
2018,06,20,14,23,28.40
2018,06,20,14,24,28.40
2018,06,20,14,25,28.40
2018,06,20,14,26,28.50
2018,06,20,14,27,28.50
2018,06,20,14,28,28.60
2018,06,20,14,29,28.70
2018,06,20,14,30,28.70
2018,06,20,14,31,28.70
2018,06,20,14,32,28.70
2018,06,20,14,33,28.70
2018,06,20,14,34,28.70
2018,06,20,14,35,28.70
2018,06,20,14,36,28.80
2018,06,20,14,37,28.80
2018,06,20,14,38,28.90
2018,06,20,14,39,28.90
2018,06,20,14,40,29.00
2018,06,20,14,41,29.10
2018,06,20,14,42,29.20
2018,06,20,14,43,29.30
2018,06,20,14,44,29.30
2018,06,20,14,45,29.40
2018,06,20,14,46,29.50
2018,06,20,14,47,29.50
2018,06,20,14,48,29.50
2018,06,20,14,49,29.60
2018,06,20,14,50,29.60
2018,06,20,14,51,29.60
2018,06,20,14,52,29.60
2018,06,20,14,53,29.50
2018,06,20,14,54,29.30
2018,06,20,14,55,29.20
2018,06,20,14,56,29.00
2018,06,20,14,57,28.90
2018,06,20,14,58,28.80
2018,06,20,14,59,28.70
2018,06,20,15,00,28.70
2018,06,20,15,01,28.70
2018,06,20,15,02,28.60
2018,06,20,15,03,28.60
2018,06,20,15,04,28.50
2018,06,20,15,05,28.40
2018,06,20,15,06,28.30
2018,06,20,15,07,28.30
2018,06,20,15,08,28.30
2018,06,20,15,09,28.30
2018,06,20,15,10,28.30
2018,06,20,15,11,28.30
2018,06,20,15,12,28.30
2018,06,20,15,13,28.30
2018,06,20,15,14,28.30
2018,06,20,15,15,28.20
2018,06,20,15,16,28.20
2018,06,20,15,17,28.20
2018,06,20,15,18,28.20
2018,06,20,15,19,28.20
2018,06,20,15,20,28.20
2018,06,20,15,21,28.20
2018,06,20,15,22,28.20
2018,06,20,15,23,28.30
2018,06,20,15,24,28.30
2018,06,20,15,25,28.30
2018,06,20,15,26,28.30
2018,06,20,15,27,28.30
2018,06,20,15,28,28.30
2018,06,20,15,29,28.20
2018,06,20,15,30,28.20
2018,06,20,15,31,28.20
2018,06,20,15,32,28.10
2018,06,20,15,33,28.10
2018,06,20,15,34,28.10
2018,06,20,15,35,28.10
2018,06,20,15,36,28.10
2018,06,20,15,37,28.10
2018,06,20,15,38,28.10
2018,06,20,15,39,28.10
2018,06,20,15,40,28.20
2018,06,20,15,41,28.20
2018,06,20,15,42,28.30
2018,06,20,15,43,28.30
2018,06,20,15,44,28.30
2018,06,20,15,45,28.30
2018,06,20,15,46,28.30
2018,06,20,15,47,28.30
2018,06,20,15,48,28.20
2018,06,20,15,49,28.20
2018,06,20,15,50,28.20
2018,06,20,15,51,28.30
2018,06,20,15,52,28.30
2018,06,20,15,53,28.40
2018,06,20,15,54,28.40
2018,06,20,15,55,28.40
2018,06,20,15,56,28.30
2018,06,20,15,57,28.30
2018,06,20,15,58,28.30
2018,06,20,15,59,28.30
2018,06,20,16,00,28.40
2018,06,20,16,01,28.40
2018,06,20,16,02,28.40
2018,06,20,16,03,28.30
2018,06,20,16,04,28.30
2018,06,20,16,05,28.40
2018,06,20,16,06,28.50
2018,06,20,16,07,28.60
2018,06,20,16,08,28.70
2018,06,20,16,09,28.80
2018,06,20,16,10,28.80
2018,06,20,16,11,28.80
2018,06,20,16,12,28.80
2018,06,20,16,13,28.70
2018,06,20,16,14,28.60
2018,06,20,16,15,28.60
2018,06,20,16,16,28.60
2018,06,20,16,17,28.60
2018,06,20,16,18,28.60
2018,06,20,16,19,28.60
2018,06,20,16,20,28.60
2018,06,20,16,21,28.70
2018,06,20,16,22,28.70
2018,06,20,16,23,28.70
2018,06,20,16,24,28.70
2018,06,20,16,25,28.70
2018,06,20,16,26,28.70
2018,06,20,16,27,28.70
2018,06,20,16,28,28.80
2018,06,20,16,29,28.80
2018,06,20,16,30,28.80
2018,06,20,16,31,28.80
2018,06,20,16,32,28.70
2018,06,20,16,33,28.70
2018,06,20,16,34,28.70
2018,06,20,16,35,28.70
2018,06,20,16,36,28.70
2018,06,20,16,37,28.70
2018,06,20,16,38,28.70
2018,06,20,16,39,28.60
2018,06,20,16,40,28.70
2018,06,20,16,41,28.70
2018,06,20,16,42,28.70
2018,06,20,16,43,28.60
2018,06,20,16,44,28.60
2018,06,20,16,45,28.70
2018,06,20,16,46,28.70
2018,06,20,16,47,28.80
2018,06,20,16,48,28.80
2018,06,20,16,49,28.80
2018,06,20,16,50,28.80
2018,06,20,16,51,28.80
2018,06,20,16,52,28.70
2018,06,20,16,53,28.70
2018,06,20,16,54,28.60
2018,06,20,16,55,28.60
2018,06,20,16,56,28.60
2018,06,20,16,57,28.60
2018,06,20,16,58,28.60
2018,06,20,16,59,28.50
2018,06,20,17,00,28.40
2018,06,20,17,01,28.40
2018,06,20,17,02,28.40
2018,06,20,17,03,28.30
2018,06,20,17,04,28.30
2018,06,20,17,05,28.30
2018,06,20,17,06,28.30
2018,06,20,17,07,28.40
2018,06,20,17,08,28.40
2018,06,20,17,09,28.40
2018,06,20,17,10,28.40
2018,06,20,17,11,28.30
2018,06,20,17,12,28.30
2018,06,20,17,13,28.30
2018,06,20,17,14,28.20
2018,06,20,17,15,28.10
2018,06,20,17,16,28.10
2018,06,20,17,17,28.10
2018,06,20,17,18,28.00
2018,06,20,17,19,28.00